Regional Weather Roundup
Issued by NWS

Home | Current Version | Previous Version | Text Only | Print | Product List | Glossary On
Versions: 1 2 3 4 5 6 7 8 9 10 11 12 13 14 15 16 17 18 19 20 21 22 23 24 25 26 27 28 29 30 31 32 33 34 35 36 37 38 39 40 41 42 43 44 45 46 47 48 49 50
246
ASUS43 KOAX 121910
RWRNE

WEATHER ROUNDUP FOR NEBRASKA
NATIONAL WEATHER SERVICE OMAHA NE
100 PM CST FRI FEB 12 2016

NOTES: SATELLITE DATA IS BEING USED TO AUGMENT CLOUD COVER ABOVE
       12000 FEET.
       "FAIR" INDICATES FEW OR NO CLOUDS BELOW 12,000 FEET WITH NO
       SIGNIFICANT WEATHER AND/OR OBSTRUCTIONS TO VISIBILITY.

  * THESE STATIONS DO NOT REPORT WEATHER SUCH AS RAIN...SNOW OR FOG.

NEZ001>004-019>022-054>056-122000-
NEBRASKA PANHANDLE

CITY           SKY/WX    TMP DP  RH WIND       PRES   REMARKS
SCOTTSBLUFF    CLOUDY    36  29  75 E10       30.37S WCI  28
ALLIANCE       CLOUDY    32  29  88 SE6       30.36F WCI  26
CHADRON        CLOUDY    36  27  69 E7        30.38F WCI  30
KIMBALL        CLOUDY    41  31  68 E10       30.32F
SIDNEY         CLOUDY    34  30  85 E12       30.36S WCI  25
$$

NEZ057>060-069>072-079>082-122000-
SOUTHWEST NEBRASKA

CITY           SKY/WX    TMP DP  RH WIND       PRES   REMARKS
NORTH PLATTE   CLOUDY    36  27  69 NE8       30.42S WCI  30
IMPERIAL       CLOUDY    34  31  88 E8        30.40F WCI  27
LEXINGTON      CLOUDY    35  28  78 NE9       30.43F WCI  27
MCCOOK         CLOUDY    34  30  85 E5        30.43F WCI  30
OGALLALA       CLOUDY    35  30  83 NE5       30.41R WCI  31
$$

NEZ005>010-023>029-035>040-094-122000-
NORTH CENTRAL NEBRASKA

CITY           SKY/WX    TMP DP  RH WIND       PRES   REMARKS
VALENTINE      CLOUDY    25  14  63 NE6       30.47S WCI  18
AINSWORTH      CLOUDY    25  19  79 N6        30.46F WCI  18
BROKEN BOW     CLOUDY    29  24  82 N7        30.44F WCI  22
O`NEILL        CLOUDY    22  15  77 N10       30.51S WCI  11
ORD            CLOUDY    25  19  78 N12       30.48F WCI  14
THEDFORD       CLOUDY    30  26  84 N8        30.44S WCI  22
$$

NEZ041-046>049-061>064-073>077-083>087-122000-
SOUTH CENTRAL NEBRASKA

CITY           SKY/WX    TMP DP  RH WIND       PRES   REMARKS
GRAND ISLAND   FOG       23  21  92 NE16      30.50S VSB 3/4 WCI  10
AURORA         CLOUDY    24  24  98 N13       30.49S FOG     WCI  13
HASTINGS       CLOUDY    30  24  78 NE13      30.47R WCI  20
HEBRON         CLOUDY    31  25  77 NE12      30.49S WCI  22
HOLDREGE       CLOUDY    33  28  83 NE7       30.44F WCI  27
KEARNEY *      CLOUDY    30  27  86 N13       30.46S WCI  20
YORK           CLOUDY    25  19  80 NE13      30.50F WCI  13
$$

NEZ011>018-030>034-042>045-122000-
NORTHEAST NEBRASKA

CITY           SKY/WX    TMP DP  RH WIND       PRES   REMARKS
NORFOLK        CLOUDY    22  12  65 N17       30.52R WCI   8
ALBION         CLOUDY    24  14  67 N9        30.50F WCI  14
BLAIR          SUNNY     23  12  63 N17       30.50R WCI   9
COLUMBUS *     CLOUDY    25   9  50 N14       30.53R WCI  13
FREMONT        MOSUNNY   22  10  59 N13G21    30.53S WCI  10
TEKAMAH        SUNNY     20  11  68 N18       30.55R WCI   5
WAYNE          CLOUDY    19  12  73 N16       30.55R WCI   5
$$

NEZ050>053-065>068-078-088>093-122000-
SOUTHEAST NEBRASKA

CITY           SKY/WX    TMP DP  RH WIND       PRES   REMARKS
LINCOLN        CLOUDY    27  16  63 N20       30.53R WCI  13
OMAHA EPPLEY   MOSUNNY   25  13  60 N20       30.52R WCI  11
BEATRICE       CLOUDY    29  20  70 N14       30.50S WCI  18
FALLS CITY     SUNNY     32  16  51 N13G18    30.48F WCI  22
NEBRASKA CITY  CLOUDY    27  15  61 N12       30.49S WCI  17
PLATTSMOUTH    MOSUNNY   26  11  54 N15G24    30.50S WCI  14
$$

NEZ044-045-051>053-067-122000-
OMAHA AREA

CITY           SKY/WX    TMP DP  RH WIND       PRES   REMARKS
OMAHA EPPLEY   MOSUNNY   25  13  60 N20       30.52R WCI  11
BLAIR          SUNNY     23  12  63 N17       30.50R WCI   9
FREMONT        MOSUNNY   22  10  59 N13G21    30.53S WCI  10
MILLARD        SUNNY     26  11  54 CALM      30.53R
OFFUTT AFB     MOSUNNY   27  12  54 NW18      30.50F WCI  13
PLATTSMOUTH    MOSUNNY   26  11  54 N15G24    30.50S WCI  14
WAHOO          CLOUDY    24  15  67 N17       30.52S WCI  10
$$




USA.gov is the U.S. government's official web portal to all federal, state and local government web resources and services.